Marshall, MI

6:35 AM EST on February 22, 2017 (GMT -0500)
Brooks

Weather History for KRMY - March, 2013

Change the Weather History Date:

Saturday, March 30, 2013

  Actual Average (KBTL) Record (KBTL)
Temperature  
Mean Temperature 37 °F -  
Max Temperature 54 °F 50 °F 78 °F (1998)
Min Temperature 20 °F 32 °F 21 °F (2003)
Degree Days  
Heating Degree Days 28    
Moisture  
Dew Point 22 °F    
Average Humidity 55    
Maximum Humidity 90    
Minimum Humidity 25    
Precipitation  
Precipitation 0.00 in - - ()
Sea Level Pressure  
Sea Level Pressure 30.10 in    
Wind  
Wind Speed 3 mph (SSW)    
Max Wind Speed 14 mph    
Max Gust Speed 21 mph    
Visibility 10 miles    
Events      
Averages and records for this station are not official NWS values.
T = Trace of Precipitation, MM = Missing Value Source: NWS Daily Summary

Daily Weather History Graph

Daily Weather History Graph

Search for Another Location

Airport or City:

Trip Planner

Search our weather history database for the weather conditions in past years. The results will help you decide how hot, cold, wet, or windy it might be!

Date:

Astronomy

Mar. 30, 2013 Rise Set
Actual Time 7:25 AM EDT 8:03 PM EDT
Civil Twilight 6:57 AM EDT 8:31 PM EDT
Nautical Twilight 6:23 AM EDT 9:05 PM EDT
Astronomical Twilight 5:49 AM EDT 9:40 PM EDT
Moon No Moon Rise 9:15 AM EDT (3/30)
Length of Visible Light 13h 34m
Length of Day
12h 38m
Waning Gibbous, 86% of the Moon is Illuminated
Mar 30
Waning Gibbous
Apr 3
Last Quarter
Apr 10
New
Apr 18
First Quarter
Apr 25
Full

Hourly Weather History & Observations

Time (EDT) Temp. Windchill Dew Point Humidity Pressure Visibility Wind Dir Wind Speed Gust Speed Precip Events Conditions
12:13 AM 30.7 °F - 19.2 °F 62% 30.22 in 10.0 mi Calm Calm - N/A   Clear
12:33 AM 28.8 °F - 18.3 °F 65% 30.21 in 10.0 mi Calm Calm - N/A   Clear
12:54 AM 27.3 °F - 17.4 °F 66% 30.21 in 10.0 mi Calm Calm - N/A   Clear
1:13 AM 28.2 °F - 21.4 °F 76% 30.21 in 10.0 mi Calm Calm - N/A   Clear
1:33 AM 27.1 °F - 21.6 °F 80% 30.21 in 10.0 mi Calm Calm - N/A   Clear
1:54 AM 25.7 °F - 19.6 °F 78% 30.21 in 10.0 mi Calm Calm - N/A   Clear
2:13 AM 27.3 °F - 19.8 °F 73% 30.21 in 10.0 mi Calm Calm - N/A   Clear
2:33 AM 24.6 °F - 17.6 °F 75% 30.21 in 10.0 mi Calm Calm - N/A   Clear
2:54 AM 25.2 °F - 18.0 °F 74% 30.21 in 10.0 mi Calm Calm - N/A   Clear
3:13 AM 24.8 °F - 19.6 °F 81% 30.21 in 10.0 mi Calm Calm - N/A   Clear
3:34 AM 24.1 °F - 18.9 °F 80% 30.21 in 10.0 mi Calm Calm - N/A   Clear
3:54 AM 24.1 °F - 19.0 °F 81% 30.20 in 10.0 mi Calm Calm - N/A   Clear
4:13 AM 24.6 °F - 19.6 °F 81% 30.20 in 10.0 mi Calm Calm - N/A   Clear
4:33 AM 23.7 °F - 19.4 °F 84% 30.20 in 10.0 mi Calm Calm - N/A   Clear
4:54 AM 22.6 °F - 17.8 °F 82% 30.20 in 10.0 mi Calm Calm - N/A   Clear
5:13 AM 23.2 °F - 19.4 °F 85% 30.19 in 10.0 mi Calm Calm - N/A   Clear
5:34 AM 23.0 °F - 19.8 °F 87% 30.19 in 10.0 mi Calm Calm - N/A   Clear
5:54 AM 22.6 °F - 19.6 °F 88% 30.19 in 10.0 mi Calm Calm - N/A   Clear
6:13 AM 22.1 °F - 18.9 °F 87% 30.19 in 10.0 mi Calm Calm - N/A   Clear
6:34 AM 22.1 °F - 18.9 °F 87% 30.19 in 10.0 mi Calm Calm - N/A   Clear
6:54 AM 20.8 °F - 16.9 °F 85% 30.20 in 10.0 mi Calm Calm - N/A   Clear
7:13 AM 20.8 °F - 17.6 °F 87% 30.20 in 10.0 mi Calm Calm - N/A   Clear
7:34 AM 21.7 °F - 18.7 °F 88% 30.21 in 10.0 mi Calm Calm - N/A   Clear
7:54 AM 21.6 °F - 18.5 °F 88% 30.20 in 10.0 mi Calm Calm - N/A   Clear
8:13 AM 23.7 °F - 21.0 °F 89% 30.19 in 10.0 mi Calm Calm - N/A   Clear
8:34 AM 26.2 °F - 23.5 °F 90% 30.20 in 10.0 mi Calm Calm - N/A   Clear
8:53 AM 28.6 °F - 25.3 °F 88% 30.19 in 10.0 mi Calm Calm - N/A   Clear
9:13 AM 31.5 °F - 25.5 °F 79% 30.18 in 10.0 mi Calm Calm - N/A   Clear
9:34 AM 33.6 °F - 27.0 °F 77% 30.17 in 10.0 mi Calm Calm - N/A   Clear
9:53 AM 35.8 °F - 26.6 °F 69% 30.16 in 10.0 mi Calm Calm - N/A   Clear
10:13 AM 38.1 °F 35.7 °F 24.6 °F 58% 30.16 in 10.0 mi SSE 3.5 mph - N/A   Clear
10:34 AM 40.3 °F 35.5 °F 20.7 °F 46% 30.16 in 10.0 mi SSW 6.9 mph - N/A   Clear
10:53 AM 41.4 °F 38.4 °F 19.6 °F 42% 30.16 in 10.0 mi South 4.6 mph - N/A   Clear
11:13 AM 42.8 °F 40.1 °F 17.2 °F 36% 30.15 in 10.0 mi SSW 4.6 mph - N/A   Clear
11:34 AM 44.1 °F 40.1 °F 16.2 °F 33% 30.15 in 10.0 mi SW 6.9 mph - N/A   Clear
11:53 AM 45.5 °F 41.3 °F 16.2 °F 31% 30.14 in 10.0 mi South 8.1 mph - N/A   Clear
12:13 PM 46.9 °F - 16.3 °F 29% 30.14 in 10.0 mi SSW 11.5 mph - N/A   Clear
12:34 PM 47.7 °F - 15.3 °F 27% 30.13 in 10.0 mi SW 12.7 mph 16.1 mph N/A   Clear
12:53 PM 48.7 °F - 15.3 °F 26% 30.12 in 10.0 mi SW 11.5 mph - N/A   Clear
1:13 PM 49.5 °F - 16.9 °F 27% 30.11 in 10.0 mi SSW 9.2 mph 18.4 mph N/A   Clear
1:34 PM 50.7 °F - 17.8 °F 27% 30.10 in 10.0 mi SW 9.2 mph 18.4 mph N/A   Clear
1:53 PM 52.5 °F - 19.2 °F 27% 30.09 in 10.0 mi WSW 12.7 mph 17.3 mph N/A   Clear
2:14 PM 52.2 °F - 17.4 °F 25% 30.08 in 10.0 mi SW 13.8 mph 19.6 mph N/A   Clear
2:33 PM 52.5 °F - 18.7 °F 26% 30.07 in 10.0 mi West 10.4 mph 18.4 mph N/A   Clear
2:53 PM 53.1 °F - 19.6 °F 27% 30.07 in 10.0 mi WSW 11.5 mph 17.3 mph N/A   Clear
3:14 PM 53.8 °F - 19.6 °F 26% 30.05 in 10.0 mi SSW 9.2 mph 20.7 mph N/A   Clear
3:33 PM 54.0 °F - 19.8 °F 26% 30.04 in 10.0 mi SSW 12.7 mph 16.1 mph N/A   Clear
3:54 PM 54.1 °F - 19.9 °F 26% 30.03 in 10.0 mi SSW 9.2 mph - N/A   Clear
4:14 PM 54.1 °F - 18.9 °F 25% 30.02 in 10.0 mi SW 13.8 mph 17.3 mph N/A   Clear
4:33 PM 54.0 °F - 19.9 °F 26% 30.01 in 10.0 mi SSW 5.8 mph - N/A   Clear
4:54 PM 54.0 °F - 20.3 °F 27% 30.00 in 10.0 mi SW 6.9 mph - N/A   Clear
5:14 PM 54.1 °F - 19.9 °F 26% 29.99 in 10.0 mi SSW 9.2 mph - N/A   Clear
5:33 PM 53.6 °F - 19.9 °F 27% 29.99 in 10.0 mi SSW 9.2 mph - N/A   Clear
5:54 PM 53.4 °F - 21.6 °F 29% 29.98 in 10.0 mi SSW 8.1 mph - N/A   Clear
6:13 PM 53.2 °F - 23.5 °F 32% 29.98 in 10.0 mi SSW 9.2 mph - N/A   Clear
6:34 PM 53.1 °F - 25.3 °F 34% 29.98 in 10.0 mi SSW 11.5 mph - N/A   Scattered Clouds
6:53 PM 53.1 °F - 26.1 °F 35% 29.97 in 10.0 mi South 9.2 mph - N/A   Clear
7:13 PM 52.5 °F - 26.2 °F 36% 29.97 in 10.0 mi South 8.1 mph - N/A   Scattered Clouds
7:34 PM 51.8 °F - 26.4 °F 37% 29.96 in 10.0 mi South 6.9 mph - N/A   Clear
7:53 PM 50.7 °F - 27.1 °F 40% 29.96 in 10.0 mi South 5.8 mph - N/A   Clear
8:15 PM 48.2 °F - 28.4 °F 46% 29.95 in 10.0 mi South 4.6 mph - N/A   Clear
8:35 PM 48.2 °F - 28.4 °F 46% 29.95 in 10.0 mi South 5.8 mph - N/A   Clear
8:55 PM 48.2 °F - 28.4 °F 46% 29.94 in 10.0 mi SSW 4.6 mph - N/A   Clear
9:15 PM 46.4 °F 45.2 °F 28.4 °F 50% 29.94 in 10.0 mi SSW 3.5 mph - N/A   Clear
9:35 PM 44.6 °F 43.1 °F 28.4 °F 53% 29.93 in 10.0 mi South 3.5 mph - N/A   Clear
9:55 PM 46.4 °F 45.2 °F 28.4 °F 50% 29.93 in 10.0 mi South 3.5 mph - N/A   Clear
10:15 PM 44.6 °F 43.1 °F 28.4 °F 53% 29.93 in 10.0 mi South 3.5 mph - N/A   Clear
10:35 PM 44.6 °F - 28.4 °F 53% 29.92 in 10.0 mi South 1.2 mph - N/A   Clear
10:55 PM 44.6 °F 43.1 °F 28.4 °F 53% 29.92 in 10.0 mi SSE 3.5 mph - N/A   Scattered Clouds
11:15 PM 44.6 °F 43.1 °F 30.2 °F 57% 29.92 in 10.0 mi South 3.5 mph - N/A   Mostly Cloudy
11:35 PM 44.6 °F - 30.2 °F 57% 29.91 in 10.0 mi SSW 2.3 mph - N/A   Mostly Cloudy
11:55 PM 44.6 °F 43.1 °F 30.2 °F 57% 29.90 in 10.0 mi SSW 3.5 mph - N/A   Overcast